ARG1858 SABE-SAAR

Flight info

Callsign ARG1858
Flight time 0h 36m
Altitude 24000
Route ATOV4B ATOVO W5 ESKON
Aircraft B737/M-V/N

Departure

Time 2026-04-20 23:22
Airport Aeroparque Jorge Newbery (SABE)

Arrival

Time 2026-04-20 23:58
Airport Rosario Islas Malvinas International Airport (SAAR)
Time Latitude Longitude Altitude Speed Heading
2026-04-20 23:04 -34.55715 -58.41405 27 ft 0 kts 24°
2026-04-20 23:12 -34.55726 -58.41410 27 ft 2 kts 15°
2026-04-20 23:12 -34.55744 -58.41411 27 ft 3 kts 348°
2026-04-20 23:13 -34.55762 -58.41401 27 ft 3 kts 323°
2026-04-20 23:13 -34.55773 -58.41385 27 ft 0 kts 295°
2026-04-20 23:13 -34.55773 -58.41386 27 ft 0 kts 295°
2026-04-20 23:15 -34.55770 -58.41394 27 ft 3 kts 295°
2026-04-20 23:15 -34.55756 -58.41428 27 ft 6 kts 298°
2026-04-20 23:15 -34.55729 -58.41486 27 ft 10 kts 300°
2026-04-20 23:16 -34.55710 -58.41561 27 ft 9 kts 240°
2026-04-20 23:16 -34.55758 -58.41607 27 ft 8 kts 214°
2026-04-20 23:16 -34.55769 -58.41660 27 ft 7 kts 291°
2026-04-20 23:16 -34.55746 -58.41716 27 ft 8 kts 297°
2026-04-20 23:17 -34.55717 -58.41779 27 ft 9 kts 299°
2026-04-20 23:17 -34.55682 -58.41849 27 ft 10 kts 303°
2026-04-20 23:17 -34.55645 -58.41916 27 ft 11 kts 303°
2026-04-20 23:17 -34.55605 -58.41987 27 ft 12 kts 304°
2026-04-20 23:18 -34.55553 -58.42075 27 ft 13 kts 307°
2026-04-20 23:18 -34.55495 -58.42168 27 ft 14 kts 307°
2026-04-20 23:18 -34.55432 -58.42270 27 ft 15 kts 307°
2026-04-20 23:18 -34.55375 -58.42366 27 ft 11 kts 297°
2026-04-20 23:19 -34.55364 -58.42407 27 ft 1 kts 276°
2026-04-20 23:19 -34.55364 -58.42410 27 ft 0 kts 275°
2026-04-20 23:19 -34.55364 -58.42439 27 ft 7 kts 264°
2026-04-20 23:19 -34.55396 -58.42503 27 ft 9 kts 195°
2026-04-20 23:20 -34.55421 -58.42475 27 ft 0 kts 125°
2026-04-20 23:20 -34.55422 -58.42473 27 ft 0 kts 125°
2026-04-20 23:21 -34.55439 -58.42443 27 ft 30 kts 126°
2026-04-20 23:21 -34.55823 -58.41757 27 ft 165 kts 124°
2026-04-20 23:21 -34.56660 -58.40260 527 ft 257 kts 124°
2026-04-20 23:22 -34.57543 -58.38088 1570 ft 307 kts 109°
2026-04-20 23:22 -34.57824 -58.35453 2717 ft 330 kts 90°
2026-04-20 23:22 -34.57478 -58.32636 4240 ft 344 kts 76°
2026-04-20 23:22 -34.56672 -58.29848 5577 ft 351 kts 66°
2026-04-20 23:23 -34.55515 -58.27141 6112 ft 376 kts 58°
2026-04-20 23:23 -34.53790 -58.24465 5043 ft 433 kts 46°
2026-04-20 23:23 -34.51443 -58.21928 3252 ft 467 kts 38°
2026-04-20 23:23 -34.48668 -58.19694 2296 ft 462 kts 30°
2026-04-20 23:24 -34.46002 -58.18117 3011 ft 392 kts 23°
2026-04-20 23:24 -34.43610 -58.17169 3697 ft 344 kts
2026-04-20 23:24 -34.41349 -58.17390 4418 ft 317 kts 340°
2026-04-20 23:24 -34.39491 -58.18745 5039 ft 317 kts 321°
2026-04-20 23:25 -34.37928 -58.20654 5282 ft 314 kts 309°
2026-04-20 23:25 -34.36653 -58.22755 5814 ft 300 kts 304°
2026-04-20 23:25 -34.35613 -58.24911 6562 ft 300 kts 296°
2026-04-20 23:25 -34.34685 -58.27189 7317 ft 302 kts 294°
2026-04-20 23:26 -34.33793 -58.29502 8072 ft 302 kts 293°
2026-04-20 23:26 -34.32961 -58.31845 8824 ft 304 kts 290°
2026-04-20 23:26 -34.32188 -58.34248 9579 ft 307 kts 289°
2026-04-20 23:26 -34.31434 -58.36684 10334 ft 310 kts 289°
2026-04-20 23:27 -34.30688 -58.39136 11085 ft 313 kts 289°
2026-04-20 23:27 -34.29944 -58.41591 11830 ft 316 kts 289°
2026-04-20 23:27 -34.29176 -58.44134 12594 ft 319 kts 289°
2026-04-20 23:27 -34.28419 -58.46640 13338 ft 322 kts 289°
2026-04-20 23:28 -34.27643 -58.49206 14122 ft 325 kts 289°
2026-04-20 23:28 -34.26859 -58.51794 14800 ft 328 kts 289°
2026-04-20 23:28 -34.26076 -58.54375 15447 ft 327 kts 289°
2026-04-20 23:28 -34.25290 -58.56962 16073 ft 333 kts 289°
2026-04-20 23:29 -34.24487 -58.59605 16701 ft 339 kts 289°
2026-04-20 23:29 -34.23661 -58.62322 17336 ft 342 kts 289°
2026-04-20 23:29 -34.22835 -58.65034 17943 ft 348 kts 289°
2026-04-20 23:29 -34.22156 -58.67266 18330 ft 359 kts 289°
2026-04-20 23:30 -34.21289 -58.70111 18796 ft 361 kts 289°
2026-04-20 23:30 -34.20413 -58.72986 19282 ft 368 kts 289°
2026-04-20 23:30 -34.19522 -58.75909 19784 ft 375 kts 289°
2026-04-20 23:30 -34.18863 -58.78068 20151 ft 379 kts 289°
2026-04-20 23:31 -34.17956 -58.81041 20649 ft 383 kts 289°
2026-04-20 23:31 -34.17018 -58.84111 21158 ft 386 kts 289°
2026-04-20 23:31 -34.16084 -58.87167 21660 ft 389 kts 289°
2026-04-20 23:31 -34.15153 -58.90208 22156 ft 392 kts 289°
2026-04-20 23:32 -34.14204 -58.93307 22657 ft 396 kts 289°
2026-04-20 23:32 -34.13233 -58.96478 23166 ft 399 kts 289°
2026-04-20 23:32 -34.12273 -58.99605 23606 ft 405 kts 289°
2026-04-20 23:32 -34.11243 -59.02808 23866 ft 412 kts 291°
2026-04-20 23:33 -34.10013 -59.05970 23985 ft 418 kts 295°
2026-04-20 23:33 -34.08622 -59.09057 24007 ft 419 kts 298°
2026-04-20 23:33 -34.07095 -59.12027 24003 ft 419 kts 301°
2026-04-20 23:33 -34.05451 -59.14935 23999 ft 420 kts 303°
2026-04-20 23:34 -34.03724 -59.17802 23998 ft 425 kts 304°
2026-04-20 23:34 -34.01919 -59.20666 23998 ft 432 kts 306°
2026-04-20 23:34 -34.00051 -59.23537 23998 ft 436 kts 306°
2026-04-20 23:34 -33.98148 -59.26396 23997 ft 439 kts 307°
2026-04-20 23:35 -33.96230 -59.29232 23997 ft 441 kts 307°
2026-04-20 23:35 -33.92298 -59.34958 23996 ft 444 kts 308°
2026-04-20 23:35 -33.90311 -59.37824 23996 ft 444 kts 308°
2026-04-20 23:36 -33.88320 -59.40686 23996 ft 445 kts 308°
2026-04-20 23:36 -33.86328 -59.43542 23996 ft 445 kts 308°
2026-04-20 23:36 -33.84568 -59.46060 23996 ft 445 kts 308°
2026-04-20 23:36 -33.83372 -59.47770 23996 ft 445 kts 308°
2026-04-20 23:37 -33.81727 -59.50120 23996 ft 445 kts 308°
2026-04-20 23:37 -33.80278 -59.52190 23996 ft 445 kts 308°
2026-04-20 23:37 -33.78994 -59.54022 23996 ft 446 kts 308°
2026-04-20 23:37 -33.77201 -59.56581 23996 ft 446 kts 308°
2026-04-20 23:38 -33.75202 -59.59432 23996 ft 446 kts 308°
2026-04-20 23:38 -33.73199 -59.62287 23996 ft 446 kts 308°
2026-04-20 23:38 -33.71194 -59.65144 23996 ft 446 kts 308°
2026-04-20 23:38 -33.70246 -59.66493 23996 ft 446 kts 308°
2026-04-20 23:39 -33.68242 -59.69342 23996 ft 446 kts 308°
2026-04-20 23:39 -33.66244 -59.72179 23996 ft 446 kts 308°
2026-04-20 23:39 -33.64237 -59.75026 23996 ft 446 kts 308°
2026-04-20 23:39 -33.62236 -59.77862 23996 ft 446 kts 308°
2026-04-20 23:40 -33.60232 -59.80699 23996 ft 446 kts 308°
2026-04-20 23:40 -33.58225 -59.83539 23996 ft 446 kts 308°
2026-04-20 23:40 -33.56204 -59.86397 23996 ft 446 kts 308°
2026-04-20 23:40 -33.54220 -59.89198 23993 ft 433 kts 308°
2026-04-20 23:41 -33.53326 -59.90457 23950 ft 420 kts 308°
2026-04-20 23:41 -33.52063 -59.92229 23798 ft 401 kts 308°
2026-04-20 23:41 -33.50902 -59.93846 23615 ft 386 kts 308°
2026-04-20 23:42 -33.49187 -59.96223 23287 ft 368 kts 308°
2026-04-20 23:42 -33.48087 -59.97749 23037 ft 363 kts 308°
2026-04-20 23:42 -33.46439 -60.00040 22608 ft 364 kts 308°
2026-04-20 23:42 -33.44777 -60.02364 22153 ft 370 kts 308°
2026-04-20 23:43 -33.42553 -60.05485 21528 ft 373 kts 308°
2026-04-20 23:43 -33.41415 -60.07085 21208 ft 373 kts 308°
2026-04-20 23:43 -33.39199 -60.10204 20578 ft 369 kts 308°
2026-04-20 23:43 -33.38097 -60.11757 20261 ft 366 kts 308°
2026-04-20 23:44 -33.36459 -60.14064 19784 ft 361 kts 308°
2026-04-20 23:44 -33.34848 -60.16334 19305 ft 355 kts 308°
2026-04-20 23:44 -33.33275 -60.18549 18803 ft 343 kts 308°
2026-04-20 23:44 -33.31757 -60.20687 18300 ft 333 kts 308°
2026-04-20 23:45 -33.30279 -60.22769 17796 ft 324 kts 308°
2026-04-20 23:45 -33.28838 -60.24800 17293 ft 316 kts 307°
2026-04-20 23:45 -33.27432 -60.26783 16790 ft 309 kts 307°
2026-04-20 23:45 -33.26048 -60.28737 16286 ft 304 kts 307°
2026-04-20 23:46 -33.24625 -60.30555 15789 ft 302 kts 314°
2026-04-20 23:46 -33.23015 -60.32126 15536 ft 292 kts 320°
2026-04-20 23:46 -33.21368 -60.33494 15499 ft 285 kts 323°
2026-04-20 23:46 -33.19681 -60.34777 15387 ft 289 kts 324°
2026-04-20 23:47 -33.17947 -60.36033 14915 ft 299 kts 326°
2026-04-20 23:47 -33.16142 -60.37290 14416 ft 299 kts 326°
2026-04-20 23:47 -33.14340 -60.38510 13912 ft 295 kts 327°
2026-04-20 23:47 -33.12561 -60.39694 13409 ft 290 kts 327°
2026-04-20 23:48 -33.10804 -60.40852 12901 ft 285 kts 327°
2026-04-20 23:48 -33.09082 -60.41979 12391 ft 279 kts 327°
2026-04-20 23:48 -33.07389 -60.43084 11769 ft 276 kts 327°
2026-04-20 23:48 -33.05712 -60.44176 11143 ft 273 kts 327°
2026-04-20 23:49 -33.04047 -60.45259 10516 ft 271 kts 327°
2026-04-20 23:49 -33.02427 -60.46312 9900 ft 268 kts 327°
2026-04-20 23:49 -33.00791 -60.47374 9274 ft 267 kts 327°
2026-04-20 23:49 -32.99165 -60.48430 8647 ft 265 kts 327°
2026-04-20 23:50 -32.97542 -60.49483 8041 ft 267 kts 328°
2026-04-20 23:50 -32.95890 -60.50556 7417 ft 274 kts 328°
2026-04-20 23:50 -32.94205 -60.51650 6795 ft 279 kts 328°
2026-04-20 23:50 -32.92487 -60.52764 6206 ft 281 kts 328°
2026-04-20 23:51 -32.90797 -60.53858 5952 ft 272 kts 329°
2026-04-20 23:51 -32.89137 -60.54929 5585 ft 270 kts 330°
2026-04-20 23:51 -32.87497 -60.55988 5208 ft 266 kts 330°
2026-04-20 23:51 -32.85896 -60.57022 4836 ft 264 kts 331°
2026-04-20 23:52 -32.84288 -60.58059 4459 ft 262 kts 331°
2026-04-20 23:52 -32.82690 -60.59089 4082 ft 260 kts 332°
2026-04-20 23:52 -32.81098 -60.60114 3705 ft 260 kts 332°
2026-04-20 23:52 -32.79510 -60.61136 3329 ft 259 kts 332°
2026-04-20 23:53 -32.77922 -60.62157 3104 ft 254 kts 332°
2026-04-20 23:53 -32.76403 -60.63136 3022 ft 249 kts 331°
2026-04-20 23:53 -32.74993 -60.64309 2988 ft 241 kts 314°
2026-04-20 23:53 -32.74317 -60.66010 2980 ft 225 kts 274°
2026-04-20 23:54 -32.74563 -60.67784 3008 ft 210 kts 253°
2026-04-20 23:54 -32.74946 -60.69405 2994 ft 201 kts 256°
2026-04-20 23:54 -32.75261 -60.71012 2990 ft 195 kts 254°
2026-04-20 23:54 -32.75856 -60.72416 2980 ft 192 kts 228°
2026-04-20 23:55 -32.76949 -60.73303 3020 ft 189 kts 210°
2026-04-20 23:55 -32.78045 -60.74181 2992 ft 194 kts 216°
2026-04-20 23:55 -32.79179 -60.75117 2701 ft 197 kts 212°
2026-04-20 23:55 -32.80379 -60.75840 2407 ft 189 kts 202°
2026-04-20 23:56 -32.81580 -60.76335 2209 ft 175 kts 196°
2026-04-20 23:56 -32.82752 -60.76709 1841 ft 171 kts 194°
2026-04-20 23:56 -32.83877 -60.77031 1521 ft 165 kts 192°
2026-04-20 23:56 -32.84991 -60.77280 1212 ft 160 kts 190°
2026-04-20 23:57 -32.86075 -60.77513 921 ft 155 kts 189°
2026-04-20 23:57 -32.87133 -60.77733 598 ft 151 kts 189°
2026-04-20 23:57 -32.88142 -60.77960 319 ft 146 kts 191°
2026-04-20 23:57 -32.89109 -60.78187 94 ft 137 kts 191°
2026-04-20 23:58 -32.89936 -60.78373 93 ft 97 kts 191°
2026-04-20 23:58 -32.90441 -60.78488 94 ft 54 kts 191°
2026-04-20 23:58 -32.90721 -60.78553 94 ft 36 kts 192°
2026-04-20 23:58 -32.90903 -60.78551 94 ft 17 kts 172°
2026-04-20 23:59 -32.90953 -60.78541 94 ft 0 kts 165°
2026-04-20 23:59 -32.90956 -60.78540 94 ft 3 kts 164°
2026-04-21 00:00 -32.91000 -60.78522 94 ft 11 kts 159°
2026-04-21 00:00 -32.91085 -60.78475 94 ft 15 kts 148°
2026-04-21 00:00 -32.91178 -60.78392 94 ft 18 kts 142°
2026-04-21 00:00 -32.91287 -60.78290 94 ft 21 kts 142°
2026-04-21 00:01 -32.91401 -60.78183 94 ft 19 kts 141°
2026-04-21 00:01 -32.91482 -60.78108 94 ft 10 kts 153°
2026-04-21 00:01 -32.91536 -60.78101 94 ft 7 kts 197°
2026-04-21 00:01 -32.91583 -60.78124 94 ft 8 kts 200°
2026-04-21 00:02 -32.91637 -60.78148 94 ft 7 kts 201°
2026-04-21 00:02 -32.91666 -60.78141 94 ft 4 kts 116°
2026-04-21 00:02 -32.91674 -60.78121 94 ft 0 kts 112°
2026-04-21 00:04 -34.55717 -58.41406 18 ft 0 kts 24°